• en Suisse
  • Liste des pays
  • À 7 jours
  • Température de l'eau
  • Carte satellitaire
  • Carte météo
  • Widgets météo
  • user-avatar
    Se connecter

    Météo par heure à Zabudenovskiy

    Ce jour, 18 Juillet, Mercredi

    Heure Température Précipitation Vent Pression Humidité
    00:00 +22°C° 0 mm 5 m/s 750 mmHg 72%
    01:00 +22°C° 0 mm 5 m/s 750 mmHg 74%
    02:00 +22°C° 0 mm 5 m/s 750 mmHg 76%
    03:00 +21°C° 0 mm 3 m/s 749 mmHg 79%
    04:00 +21°C° 0 mm 4 m/s 750 mmHg 80%
    05:00 +21°C° 0 mm 4 m/s 750 mmHg 80%
    06:00 +21°C° 0 mm 4 m/s 750 mmHg 80%
    07:00 +23°C° 0,1 mm 5 m/s 750 mmHg 72%
    08:00 +26°C° 0,1 mm 6 m/s 750 mmHg 64%
    09:00 +27°C° 0,1 mm 6 m/s 750 mmHg 56%
    10:00 +28°C° 0 mm 7 m/s 750 mmHg 53%
    11:00 +29°C° 0 mm 7 m/s 750 mmHg 50%
    12:00 +30°C° 0 mm 7 m/s 750 mmHg 46%
    13:00 +30°C° 0 mm 7 m/s 750 mmHg 45%
    14:00 +32°C° 0 mm 7 m/s 750 mmHg 44%
    15:00 +32°C° 0 mm 7 m/s 750 mmHg 43%
    16:00 +30°C° 0 mm 7 m/s 750 mmHg 44%
    17:00 +30°C° 0 mm 7 m/s 750 mmHg 46%
    18:00 +29°C° 0 mm 6 m/s 750 mmHg 47%
    19:00 +28°C° 0 mm 5 m/s 750 mmHg 51%
    20:00 +26°C° 0 mm 4 m/s 750 mmHg 56%
    21:00 +25°C° 0 mm 3 m/s 750 mmHg 60%
    22:00 +24°C° 0 mm 2 m/s 751 mmHg 60%
    23:00 +24°C° 0 mm 2 m/s 751 mmHg 61%

    Demain, 19 Juillet, Jeudi

    Heure Température Précipitation Vent Pression Humidité
    00:00 +24°C° 0 mm 2 m/s 751 mmHg 62%
    01:00 +23°C° 0 mm 2 m/s 751 mmHg 64%
    02:00 +23°C° 0 mm 2 m/s 751 mmHg 66%
    03:00 +23°C° 0 mm 1 m/s 751 mmHg 68%
    04:00 +23°C° 0,1 mm 2 m/s 751 mmHg 69%
    05:00 +23°C° 0,1 mm 2 m/s 751 mmHg 71%
    06:00 +23°C° 0,1 mm 2 m/s 751 mmHg 72%
    07:00 +25°C° 0,2 mm 2 m/s 751 mmHg 67%
    08:00 +26°C° 0,2 mm 3 m/s 751 mmHg 61%
    09:00 +28°C° 0,2 mm 3 m/s 751 mmHg 56%
    10:00 +29°C° 0,1 mm 3 m/s 751 mmHg 54%
    11:00 +29°C° 0,1 mm 4 m/s 751 mmHg 52%
    12:00 +30°C° 0,1 mm 4 m/s 751 mmHg 49%
    13:00 +30°C° 0 mm 4 m/s 751 mmHg 49%
    14:00 +30°C° 0 mm 3 m/s 751 mmHg 48%
    15:00 +31°C° 0 mm 3 m/s 751 mmHg 48%
    16:00 +30°C° 0 mm 3 m/s 751 mmHg 49%
    17:00 +30°C° 0 mm 3 m/s 751 mmHg 50%
    18:00 +30°C° 0 mm 3 m/s 751 mmHg 51%
    19:00 +29°C° 0,2 mm 2 m/s 751 mmHg 55%
    20:00 +27°C° 0,2 mm 2 m/s 751 mmHg 60%
    21:00 +26°C° 0,2 mm 2 m/s 752 mmHg 64%
    22:00 +26°C° 0,2 mm 2 m/s 752 mmHg 66%
    23:00 +25°C° 0,2 mm 1 m/s 752 mmHg 68%

    Après-demain, 20 Juillet, Vendredi

    Heure Température Précipitation Vent Pression Humidité
    00:00 +25°C° 0,2 mm 1 m/s 752 mmHg 70%
    01:00 +24°C° 0 mm 1 m/s 752 mmHg 71%
    02:00 +24°C° 0 mm 1 m/s 751 mmHg 73%
    03:00 +24°C° 0 mm 1 m/s 751 mmHg 74%
    04:00 +24°C° 0 mm 1 m/s 751 mmHg 75%
    05:00 +24°C° 0 mm 1 m/s 752 mmHg 75%
    06:00 +24°C° 0 mm 1 m/s 752 mmHg 76%
    07:00 +26°C° 0 mm 1 m/s 752 mmHg 70%
    08:00 +27°C° 0 mm 2 m/s 752 mmHg 65%
    09:00 +29°C° 0 mm 3 m/s 752 mmHg 59%
    10:00 +30°C° 0,1 mm 3 m/s 752 mmHg 54%
    11:00 +31°C° 0,1 mm 3 m/s 752 mmHg 49%
    12:00 +33°C° 0,1 mm 3 m/s 752 mmHg 44%
    13:00 +33°C° 0 mm 3 m/s 752 mmHg 44%
    14:00 +33°C° 0 mm 3 m/s 751 mmHg 43%
    15:00 +33°C° 0 mm 3 m/s 751 mmHg 43%
    16:00 +33°C° 0 mm 3 m/s 751 mmHg 43%
    17:00 +33°C° 0 mm 3 m/s 751 mmHg 43%
    18:00 +32°C° 0 mm 2 m/s 751 mmHg 43%
    19:00 +30°C° 0,2 mm 2 m/s 752 mmHg 48%
    20:00 +28°C° 0,2 mm 2 m/s 752 mmHg 53%
    21:00 +27°C° 0,2 mm 2 m/s 752 mmHg 58%
    22:00 +26°C° 0 mm 2 m/s 752 mmHg 60%
    23:00 +25°C° 0 mm 2 m/s 752 mmHg 62%

    21 Juillet, Samedi

    Heure Température Précipitation Vent Pression Humidité
    00:00 +25°C° 0 mm 2 m/s 752 mmHg 64%
    01:00 +24°C° 0,1 mm 1 m/s 752 mmHg 66%
    02:00 +24°C° 0,1 mm 1 m/s 752 mmHg 68%
    03:00 +23°C° 0,1 mm 1 m/s 752 mmHg 70%
    04:00 +23°C° 0 mm 1 m/s 752 mmHg 70%
    05:00 +24°C° 0 mm 1 m/s 752 mmHg 71%
    06:00 +22°C° 0 mm 0 m/s 752 mmHg 71%
    07:00 +26°C° 0 mm 1 m/s 752 mmHg 64%
    08:00 +28°C° 0 mm 1 m/s 752 mmHg 57%
    09:00 +29°C° 0 mm 2 m/s 753 mmHg 50%
    10:00 +31°C° 0 mm 2 m/s 753 mmHg 46%
    11:00 +33°C° 0 mm 3 m/s 752 mmHg 42%
    12:00 +34°C° 0 mm 3 m/s 752 mmHg 39%
    13:00 +34°C° 0 mm 4 m/s 752 mmHg 38%
    14:00 +35°C° 0 mm 4 m/s 752 mmHg 37%
    15:00 +35°C° 0 mm 4 m/s 752 mmHg 36%
    16:00 +35°C° 0 mm 4 m/s 752 mmHg 38%
    17:00 +34°C° 0 mm 3 m/s 752 mmHg 39%
    18:00 +34°C° 0 mm 3 m/s 752 mmHg 41%
    19:00 +31°C° 0 mm 3 m/s 753 mmHg 46%
    20:00 +29°C° 0 mm 3 m/s 753 mmHg 51%
    21:00 +27°C° 0 mm 2 m/s 753 mmHg 56%
    22:00 +27°C° 0 mm 2 m/s 753 mmHg 59%
    23:00 +26°C° 0 mm 2 m/s 753 mmHg 61%

    22 Juillet, Dimanche

    Heure Température Précipitation Vent Pression Humidité
    00:00 +25°C° 0 mm 2 m/s 753 mmHg 64%
    01:00 +25°C° 0 mm 2 m/s 753 mmHg 66%
    02:00 +24°C° 0 mm 2 m/s 753 mmHg 69%
    03:00 +24°C° 0 mm 2 m/s 753 mmHg 71%
    04:00 +24°C° 0 mm 1 m/s 753 mmHg 72%
    05:00 +24°C° 0 mm 1 m/s 753 mmHg 74%
    06:00 +24°C° 0 mm 1 m/s 753 mmHg 75%
    07:00 +26°C° 0 mm 2 m/s 753 mmHg 68%
    08:00 +28°C° 0 mm 2 m/s 753 mmHg 61%
    09:00 +30°C° 0 mm 3 m/s 753 mmHg 54%
    10:00 +31°C° 0 mm 3 m/s 753 mmHg 50%
    11:00 +33°C° 0 mm 3 m/s 753 mmHg 45%
    12:00 +34°C° 0 mm 3 m/s 752 mmHg 40%
    13:00 +35°C° 0 mm 3 m/s 752 mmHg 39%
    14:00 +35°C° 0 mm 3 m/s 752 mmHg 38%
    15:00 +36°C° 0 mm 3 m/s 752 mmHg 36%
    16:00 +35°C° 0 mm 3 m/s 752 mmHg 37%
    17:00 +35°C° 0 mm 3 m/s 752 mmHg 38%
    18:00 +35°C° 0 mm 3 m/s 752 mmHg 39%
    19:00 +32°C° 0 mm 2 m/s 752 mmHg 43%
    20:00 +30°C° 0 mm 2 m/s 752 mmHg 48%
    21:00 +29°C° 0 mm 2 m/s 752 mmHg 52%
    22:00 +28°C° 0,1 mm 2 m/s 752 mmHg 55%
    23:00 +27°C° 0,1 mm 2 m/s 752 mmHg 58%

    23 Juillet, Lundi

    Heure Température Précipitation Vent Pression Humidité
    00:00 +27°C° 0,1 mm 1 m/s 752 mmHg 61%
    01:00 +26°C° 0,1 mm 1 m/s 752 mmHg 63%
    02:00 +26°C° 0,1 mm 1 m/s 752 mmHg 65%
    03:00 +25°C° 0,1 mm 1 m/s 752 mmHg 67%
    04:00 +26°C° 0,1 mm 1 m/s 752 mmHg 68%
    05:00 +24°C° 0,1 mm 0 m/s 752 mmHg 69%
    06:00 +24°C° 0,1 mm 0 m/s 752 mmHg 70%
    07:00 +27°C° 0 mm 1 m/s 752 mmHg 64%
    08:00 +29°C° 0 mm 1 m/s 752 mmHg 58%
    09:00 +30°C° 0 mm 1 m/s 752 mmHg 52%
    10:00 +31°C° 0 mm 2 m/s 752 mmHg 48%
    11:00 +34°C° 0 mm 2 m/s 752 mmHg 43%
    12:00 +35°C° 0 mm 3 m/s 752 mmHg 39%
    13:00 +35°C° 0 mm 3 m/s 752 mmHg 37%
    14:00 +36°C° 0 mm 3 m/s 751 mmHg 36%
    15:00 +36°C° 0 mm 3 m/s 751 mmHg 34%
    16:00 +36°C° 0,1 mm 3 m/s 751 mmHg 36%
    17:00 +35°C° 0,1 mm 2 m/s 751 mmHg 37%
    18:00 +35°C° 0,1 mm 2 m/s 751 mmHg 39%
    19:00 +32°C° 0,3 mm 2 m/s 751 mmHg 44%
    20:00 +30°C° 0,3 mm 2 m/s 752 mmHg 49%
    21:00 +29°C° 0,3 mm 2 m/s 752 mmHg 55%
    22:00 +28°C° 0,5 mm 2 m/s 752 mmHg 58%
    23:00 +27°C° 0,5 mm 2 m/s 752 mmHg 61%
    Voir plus